Location: Newark
(44.1667°N, 8.2500°E)
Time: 12:29:02
(UTC+00:00)

Envisat - Pass Details

Date: 13 November 2019
Orbit: 764 x 766 km, 98.1° (Epoch: 16 December)

Event Time Altitude Azimuth Distance (km) Brightness Sun altitude
Rises 17:37:28 0° 173° (S) 3,219 6.3 -17.1°
Reaches altitude 10° 17:39:47 10° 176° (S) 2,297 5.5 -17.5°
Maximum altitude 17:44:49 66° 258° (WSW) 835 3.4 -18.4°
Drops below altitude 10° 17:49:53 10° 341° (NNW) 2,313 5.6 -19.3°
Sets 17:52:14 0° 345° (NNW) 3,244 6.4 -19.7°
